Location: Arboucave
(43.6130°N, 0.4343°W)
Time: 05:11:18
(UTC+00:00)

Cosmos 1072 Rocket - Pass Details

Date: 17 November 2025
Orbit: 947 x 1008 km, 82.9° (Epoch: 04 December)

Event Time Altitude Azimuth Distance (km) Brightness Sun altitude
Rises 17:47:28 0° 173° (S) 3,640 7.6 -13.2°
Reaches altitude 10° 17:50:01 10° 169° (S) 2,690 6.9 -13.7°
Maximum altitude 17:56:00 57° 92° (E) 1,112 4.5 -14.7°
Drops below altitude 10° 18:01:58 10° 16° (NNE) 2,681 6.5 -15.8°
Sets 18:04:29 0° 12° (NNE) 3,628 7.3 -16.2°
